Weather History for Madrid, Spain

Change the Weather History Date:

Friday, October 4, 2013

  Actual Average Record
Temperature  
Mean Temperature 70 °F -  
Max Temperature 76 °F 65 °F 87 °F (1997)
Min Temperature 62 °F 46 °F 39 °F (2005)
Cooling Degree Days 4    
Growing Degree Days 20 (Base 50)    
Moisture  
Dew Point 58 °F    
Average Humidity 74    
Maximum Humidity 100    
Minimum Humidity 36    
Precipitation  
Precipitation 0.08 in 0.05 in - ()
Sea Level Pressure  
Sea Level Pressure 30.04 in    
Wind  
Wind Speed 6 mph ()    
Max Wind Speed 17 mph    
Max Gust Speed 31 mph    
Visibility 6.7 miles    
Events Rain , Thunderstorm    
Averages and records for this station are not official NWS values.
T = Trace of Precipitation, MM = Missing Value Source: Averaged Metar Reports

Daily Weather History Graph

Daily Weather History Graph

Search for Another Location

Airport:

Trip Planner

Search our weather history database for the weather conditions in past years. The results will help you decide how hot, cold, wet, or windy it might be!

Date:

Astronomy

Oct. 04, 2013 Rise Set
Actual Time 8:13 AM CEST 7:51 PM CEST
Civil Twilight 7:46 AM CEST 8:18 PM CEST
Nautical Twilight 7:14 AM CEST 8:50 PM CEST
Astronomical Twilight 6:43 AM CEST 9:21 PM CEST
Moon 7:34 AM CEST (10/4) 7:25 PM CEST (10/4)
Length of Visible Light 12h 32m
Length of Day
11h 37m
Waning Crescent, 0% of the Moon is Illuminated
Oct 4
Waning Crescent
Oct 5
New
Oct 12
First Quarter
Oct 19
Full
Oct 27
Last Quarter

Hourly Weather History & Observations

Time (CEST) Temp. Dew Point Humidity Pressure Visibility Wind Dir Wind Speed Gust Speed Precip Events Conditions
12:00 AM 66.2 °F 62.6 °F 88% 30.01 in 6.2 mi Variable 1.2 mph - N/A   Scattered Clouds
12:30 AM 64.4 °F 62.6 °F 94% 30.04 in 6.2 mi Variable 2.3 mph - N/A   Scattered Clouds
1:00 AM 64.4 °F 62.6 °F 94% 30.01 in 6.2 mi NE 5.8 mph - N/A   Scattered Clouds
1:30 AM 64.4 °F 62.6 °F 94% 30.01 in 6.2 mi North 4.6 mph - N/A   Scattered Clouds
2:00 AM 64.4 °F 62.6 °F 94% 30.01 in 6.2 mi Variable 1.2 mph - N/A   Scattered Clouds
2:30 AM 64.4 °F 62.6 °F 94% 30.01 in 6.2 mi Calm Calm - N/A   Scattered Clouds
2:49 AM 64.4 °F 62.6 °F 94% 30.01 in 6.2 mi SE 3.5 mph - N/A Rain Rain Showers
3:00 AM 64.4 °F 64.4 °F 100% 30.01 in 3.1 mi SE 4.6 mph - N/A Rain Heavy Rain Showers
3:30 AM 64.4 °F 64.4 °F 100% 30.01 in 6.2 mi WSW 1.2 mph - N/A Rain Light Rain
4:00 AM 66.2 °F 64.4 °F 94% 30.01 in 6.2 mi South 3.5 mph - N/A Rain Light Rain
4:30 AM 66.2 °F 64.4 °F 94% 29.98 in 6.2 mi East 1.2 mph - N/A Rain Light Rain
5:00 AM 66.2 °F 64.4 °F 94% 29.98 in 6.2 mi SW 6.9 mph - N/A   Mostly Cloudy
5:30 AM 66.2 °F 64.4 °F 94% 29.98 in 6.2 mi South 8.1 mph - N/A   Scattered Clouds
6:30 AM 66.2 °F 64.4 °F 94% 29.98 in 6.2 mi South 6.9 mph - N/A   Scattered Clouds
7:00 AM 66.2 °F 64.4 °F 94% 29.98 in 6.2 mi South 9.2 mph - N/A   Scattered Clouds
7:30 AM 66.2 °F 64.4 °F 94% 29.98 in 6.2 mi South 8.1 mph - N/A   Mostly Cloudy
8:00 AM 66 °F 63 °F 86% 29.93 in 12 mi South 6.9 mph - -   Partly Cloudy
8:00 AM 66.2 °F 64.4 °F 94% 29.98 in 6.2 mi South 5.8 mph - N/A   Mostly Cloudy
8:30 AM 66.2 °F 62.6 °F 88% 30.01 in 6.2 mi North 3.5 mph - N/A   Partly Cloudy
9:00 AM 66.2 °F 60.8 °F 83% 30.01 in 6.2 mi WNW 4.6 mph - N/A   Mostly Cloudy
9:11 AM 66.2 °F 59.0 °F 78% 30.01 in 6.2 mi WNW 8.1 mph - N/A   Scattered Clouds
9:21 AM 64.4 °F 60.8 °F 88% 30.04 in 1.2 mi West 10.4 mph 24.2 mph N/A Rain , Thunderstorm Rain Showers
9:30 AM 64.4 °F 60.8 °F 88% 30.04 in 6.2 mi WSW 9.2 mph 20.7 mph N/A Rain , Thunderstorm Rain Showers
9:42 AM 64.4 °F 60.8 °F 88% 30.04 in 6.2 mi SW 6.9 mph - N/A   Mostly Cloudy
10:00 AM 64.4 °F 62.6 °F 94% 30.04 in 6.2 mi SW 5.8 mph - N/A   Mostly Cloudy
10:30 AM 64.4 °F 62.6 °F 94% 30.04 in 6.2 mi SSW 4.6 mph 16.1 mph N/A Rain Light Rain
11:00 AM 64.4 °F 62.6 °F 94% 30.06 in 6.2 mi SW 4.6 mph - N/A Rain Light Rain
11:30 AM 64.4 °F 62.6 °F 94% 30.06 in 6.2 mi SSW 6.9 mph 21.9 mph N/A   Scattered Clouds
12:00 PM 68.0 °F 62.6 °F 83% 30.06 in 6.2 mi SSW 5.8 mph 20.7 mph N/A   Scattered Clouds
12:30 PM 68.0 °F 62.6 °F 83% 30.06 in 6.2 mi WSW 6.9 mph 20.7 mph N/A   Scattered Clouds
1:00 PM 68.0 °F 62.6 °F 83% 30.06 in 6.2 mi WSW 9.2 mph 31.1 mph N/A   Scattered Clouds
1:30 PM 69.8 °F 62.6 °F 78% 30.06 in 6.2 mi West 8.1 mph - N/A   Scattered Clouds
2:00 PM 70 °F 60 °F 62% 30.00 in 19 mi WSW 6.9 mph - -   Partly Cloudy
2:00 PM 69.8 °F 60.8 °F 73% 30.06 in 6.2 mi WSW 6.9 mph - N/A   Partly Cloudy
2:30 PM 71.6 °F 57.2 °F 60% 30.06 in 6.2 mi WSW 6.9 mph 19.6 mph N/A   Partly Cloudy
3:00 PM 73.4 °F 55.4 °F 53% 30.06 in 6.2 mi WSW 11.5 mph - N/A   Partly Cloudy
3:30 PM 75.2 °F 51.8 °F 44% 30.06 in 6.2 mi SW 11.5 mph - N/A   Partly Cloudy
4:00 PM 75.2 °F 51.8 °F 44% 30.04 in 6.2 mi SW 13.8 mph - N/A   Partly Cloudy
4:30 PM 75.2 °F 50.0 °F 41% 30.04 in 6.2 mi SSW 15.0 mph - N/A   Partly Cloudy
5:00 PM 75.2 °F 46.4 °F 36% 30.04 in 6.2 mi SSW 17.3 mph - N/A   Partly Cloudy
5:30 PM 75.2 °F 50.0 °F 41% 30.04 in - SW 13.8 mph 31.1 mph N/A   Clear
6:00 PM 75.2 °F 46.4 °F 36% 30.04 in - SW 13.8 mph 27.6 mph N/A   Clear
6:30 PM 75.2 °F 50.0 °F 41% 30.04 in 6.2 mi SW 15.0 mph - N/A   Partly Cloudy
7:00 PM 73.4 °F 50.0 °F 44% 30.06 in 6.2 mi WSW 11.5 mph - N/A   Partly Cloudy
7:30 PM 73.4 °F 50.0 °F 44% 30.06 in 6.2 mi SW 11.5 mph - N/A   Partly Cloudy
8:00 PM 71 °F 51 °F 38% 30.01 in 19 mi WSW 15.0 mph - -   Scattered Clouds
8:00 PM 71.6 °F 50.0 °F 46% 30.06 in 6.2 mi WSW 15.0 mph 26.5 mph N/A   Partly Cloudy
8:30 PM 71.6 °F 51.8 °F 50% 30.09 in 6.2 mi WSW 17.3 mph - N/A   Partly Cloudy
9:00 PM 69.8 °F 51.8 °F 53% 30.09 in - WSW 12.7 mph - N/A   Clear
9:30 PM 69.8 °F 51.8 °F 53% 30.09 in - WSW 11.5 mph - N/A   Clear
10:00 PM 68.0 °F 51.8 °F 56% 30.12 in - WSW 9.2 mph - N/A   Clear
10:30 PM 66.2 °F 51.8 °F 60% 30.12 in - Variable 4.6 mph - N/A   Clear
11:00 PM 64.4 °F 51.8 °F 64% 30.15 in - NNE 4.6 mph - N/A   Clear
11:30 PM 62.6 °F 51.8 °F 68% 30.15 in - NNE 2.3 mph - N/A   Clear